SCP
0 0 0 0 0 0 0 0 0 0 0 0 0 0 0 0 0 0 0 0 0 0 1 1 1 1 1 1 1 1 1 1 0 0 0 0 0 0 0 0 0 0 0
0 0 0 0 0 0 0 0 0 0 0 0 0 0 0 0 0 0 0 0 0 0 1 1 1 1 1 1 1 1 1 1 1 0 0 0 0 0 0 1 0 0 0
0 0 0 0 0 0 0 0 0 0 0 0 0 0 0 0 0 0 0 0 0 1 1 1 1 1 1 1 1 1 1 1 1 1 0 0 0 1 1 1 1 1 0
0 0 0 0 0 0 0 0 0 0 0 0 0 0 0 0 0 0 0 0 0 0 1 1 1 1 1 1 1 1 1 1 1 1 0 0 0 0 1 1 1 1 1
0 0 0 0 0 0 0 0 0 0 0 0 0 0 0 0 0 0 0 0 0 1 1 1 1 1 1 1 1 1 1 1 1 1 1 1 1 0 0 1 1 1 1
0 0 0 0 0 0 0 0 0 0 0 0 0 0 0 0 0 0 0 0 0 1 1 1 1 0 0 0 0 0 0 1 1 1 1 1 0 1 1 1 1 1 0
0 0 0 0 0 0 0 0 0 0 0 0 0 0 0 0 0 0 0 0 0 0 1 1 1 1 0 1 0 0 0 0 0 1 1 1 1 1 1 1 1 1 1
0 0 0 0 0 0 0 0 0 0 0 0 0 0 0 0 0 0 0 0 0 0 0 0 0 0 1 1 1 1 1 1 1 1 1 1 1 1 1 1 1 1 0
0 0 0 0 0 0 0 0 0 0 0 0 0 0 0 0 0 0 0 0 0 0 0 0 0 0 0 0 1 1 1 0 0 0 0 0 0 0 0 1 1 0 0
0 0 0 0 0 0 0 0 0 0 0 0 0 0 0 0 0 0 0 0 0 0 0 0 0 0 0 0 1 1 0 0 0 0 0 0 0 0 0 0 1 1 1
0 0 0 0 0 0 0 0 0 0 0 0 0 0 0 0 0 0 0 0 0 0 0 1 1 0 0 0 0 0 0 0 0 0 0 0 0 0 0 1 1 1 1
0 0 0 0 0 0 0 0 0 0 0 0 0 0 0 0 0 0 0 0 0 0 0 0 0 0 0 0 0 0 0 0 0 0 0 0 0 0 0 0 1 1 1
0 0 0 0 0 0 0 0 0 0 0 0 0 0 0 0 0 0 0 0 0 0 0 0 0 0 0 0 0 0 0 0 0 0 0 0 0 0 0 0 0 0 1
0 0 0 0 0 0 0 0 0 0 0 0 0 0 0 0 0 0 0 0 0 0 0 0 0 0 0 0 0 0 0 0 0 0 0 0 0 0 0 0 0 0 0
0 0 0 0 0 0 0 0 0 0 0 0 0 0 0 0 0 0 0 0 0 0 0 0 0 0 0 0 0 0 0 0 0 0 0 0 0 0 0 0 0 0 0
0 0 0 0 0 0 0 0 0 0 0 0 0 0 0 0 0 0 0 0 0 0 0 0 0 0 0 0 0 0 0 0 0 0 0 0 0 0 0 0 0 0 0
0 0 0 0 0 0 0 0 0 0 0 0 0 0 0 0 0 0 0 0 0 0 0 0 0 0 0 0 0 0 0 0 0 0 0 0 0 0 0 0 0 0 0
0 0 0 0 0 0 0 0 0 0 0 0 0 0 0 0 0 0 0 0 0 0 0 0 0 0 0 0 0 0 0 0 0 0 0 0 0 0 0 0 0 0 0
0 0 0 0 0 0 0 0 0 0 0 0 0 0 0 0 0 0 0 0 0 0 0 0 0 0 0 0 0 0 0 0 0 0 0 0 0 0 0 0 0 0 0
0 0 0 0 0 0 0 0 0 0 0 0 0 0 0 0 0 0 0 0 0 0 0 0 0 0 0 0 0 0 0 0 0 0 0 0 0 0 0 0 0 0 0
0 0 0 0 0 0 0 0 0 0 0 0 0 0 0 0 0 0 0 0 0 0 0 0 0 0 0 0 0 0 0 0 0 -0 -0 -0 0 0 0 0 0 0 0
0 0 0 0 0 0 0 0 0 0 0 0 0 0 0 0 -0 -0 -0 0 0 0 0 0 0 0 0 0 0 0 0 0 0 -0 -0 -0 -0 -0 0 0 0 0 0
0 0 0 0 0 0 0 0 0 0 0 0 0 0 0 0 -0 -0 -0 0 0 0 0 0 0 0 0 0 0 0 0 0 -0 -0 -0 -0 -0 0 0 0 0 0 0
0 0 0 0 0 0 0 0 0 0 0 0 0 0 0 0 0 0 0 0 0 0 0 0 0 0 0 0 0 0 0 0 0 0 -0 0 0 0 0 0 0 0 0
0 0 0 0 0 0 0 0 0 0 0 0 0 0 0 0 0 0 0 0 0 0 0 0 0 0 0 0 0 0 0 0 0 0 0 0 0 0 0 0 0 0 0
0 0 0 0 0 0 0 0 0 0 0 0 0 0 0 0 0 0 0 0 0 0 0 0 0 0 0 0 0 0 0 0 0 0 0 0 0 0 0 0 0 0 0
Wind_Speed_500mb
11 17 22 28 32 32 34 35 37 38 40 40 41 44 47 46 44 49 54 52 56 54 53 54 51 49 53 51 48 46 47 51 47 49 55 54 43 40 40 42 45 43 36
13 17 22 28 31 34 37 40 42 45 45 46 43 41 43 44 45 46 47 51 53 58 57 49 51 48 49 50 50 49 51 50 51 53 46 56 51 46 43 43 45 48 48
15 19 22 25 27 29 32 35 37 41 42 44 48 50 49 46 45 45 44 46 48 51 55 55 54 50 54 45 49 52 51 47 49 51 50 40 48 51 45 41 41 41 44
20 22 22 23 25 27 29 31 33 35 38 40 42 44 45 47 45 43 43 42 43 46 50 50 50 47 45 41 43 47 48 49 46 45 47 48 39 38 45 48 47 43 46
22 23 24 24 25 26 28 30 30 30 34 38 40 40 42 43 36 41 42 42 44 46 44 44 47 49 48 45 45 47 43 45 45 42 45 47 43 37 36 31 34 34 40
20 21 24 26 28 29 30 28 25 24 26 28 31 39 42 44 46 44 43 45 45 46 47 45 43 42 44 42 45 45 45 47 47 46 48 48 48 47 41 39 37 32 37
21 24 24 25 28 31 29 24 23 24 26 26 26 29 32 37 42 47 46 44 46 44 46 43 44 43 40 41 42 42 42 44 48 48 51 51 44 41 43 46 40 37 40
21 22 23 24 27 28 25 23 23 27 27 27 26 27 29 28 30 36 43 49 45 42 41 40 40 38 37 35 34 33 31 31 34 40 49 52 54 51 54 50 48 52 50
22 20 18 21 26 25 26 25 25 28 28 29 31 30 26 26 26 29 36 40 45 39 38 37 38 38 33 34 33 30 26 20 21 26 30 35 43 51 53 53 58 54 58
21 16 15 20 24 26 28 26 30 35 35 35 33 30 25 27 27 29 32 31 35 36 34 36 36 35 32 31 32 28 27 28 31 33 32 32 34 37 38 52 53 55 56
21 17 14 18 21 21 24 27 28 31 32 35 34 30 24 24 27 30 27 22 27 30 30 29 28 28 24 25 20 24 29 34 34 35 37 36 33 32 28 29 41 51 55
14 14 15 17 19 19 21 23 21 23 27 31 32 33 33 32 26 24 24 23 24 27 28 23 20 19 15 17 21 24 27 29 34 35 30 26 24 24 24 27 30 37 47
15 14 14 13 14 19 25 24 26 25 27 28 29 33 36 35 32 26 21 23 24 25 24 22 23 20 21 23 27 28 31 32 35 37 36 29 27 28 35 33 32 33 40
17 16 14 12 13 17 22 25 24 26 29 32 37 39 44 38 35 36 35 24 19 25 29 26 26 24 26 28 27 27 28 30 32 33 31 37 41 42 43 41 45 39 39
14 15 18 15 15 15 18 20 24 28 31 36 37 40 40 36 35 38 39 38 31 21 15 10 11 15 19 22 23 23 24 26 26 24 24 24 27 35 30 30 33 38 40
11 12 16 14 16 17 17 15 21 25 31 35 40 36 34 33 33 30 31 28 24 20 19 8 8 12 14 18 22 24 25 25 23 23 27 33 38 37 37 41 40 38 41
12 16 17 18 16 20 20 17 14 21 27 30 32 33 31 29 24 27 27 24 22 15 11 9 11 12 15 19 24 26 30 32 37 36 36 38 41 44 44 44 46 46 49
10 15 20 22 19 18 20 18 14 14 14 13 25 24 23 24 25 24 22 19 13 11 12 14 15 17 21 24 27 31 33 35 35 37 37 40 44 46 50 49 48 51 52
8 9 14 20 21 19 17 15 13 14 16 17 17 20 20 19 22 21 21 19 19 20 20 20 20 22 25 28 31 33 34 35 39 41 42 44 46 46 48 50 49 52 56
11 10 11 13 16 15 14 12 13 16 17 19 18 20 21 21 22 23 24 25 25 25 25 25 27 28 29 32 35 37 38 38 40 43 46 49 49 50 53 56 57 59 58
15 16 16 17 14 13 13 12 13 14 14 18 18 22 22 22 22 23 23 24 25 25 25 26 28 30 32 35 38 41 43 46 48 51 52 54 57 58 57 60 62 63 61
17 20 20 20 20 21 16 16 15 14 14 16 17 21 20 18 18 19 20 21 23 24 26 28 29 31 33 36 39 41 46 48 50 52 57 65 65 62 63 66 67 66 63
19 20 21 23 24 25 26 22 20 17 17 19 21 21 21 21 19 18 19 20 23 24 26 28 28 26 29 35 37 40 42 47 52 56 64 68 69 68 68 70 70 70 65
29 25 23 24 26 26 23 24 25 26 25 26 25 23 22 21 19 20 22 23 26 26 28 30 32 34 38 37 36 34 33 45 52 57 66 72 72 72 70 71 74 72 65
40 37 34 29 26 25 25 26 26 26 27 26 27 25 23 23 23 21 20 24 26 29 32 36 32 36 39 41 38 41 45 50 56 57 66 68 64 68 71 73 72 68 62
48 46 45 39 36 30 28 27 26 25 26 25 26 27 26 25 25 25 26 26 28 31 36 33 40 43 43 40 40 45 49 54 58 61 62 65 63 69 72 72 66 64 61
Wind_Direction_500mb
268 267 273 278 281 285 284 285 286 285 286 285 281 279 284 286 282 275 275 268 266 268 267 267 266 263 263 266 268 266 265 266 263 277 282 284 280 280 273 262 258 270 275
303 292 289 289 286 284 283 280 277 275 275 280 283 283 281 283 286 283 278 271 269 270 270 270 270 267 266 271 273 270 266 265 269 272 273 281 283 282 276 272 268 269 258
328 321 313 305 297 290 285 281 281 279 279 277 277 279 283 285 282 283 285 280 272 268 272 272 271 270 267 266 270 274 273 272 269 272 276 274 281 284 277 268 267 263 262
328 325 324 320 318 318 314 306 295 288 284 280 279 279 279 280 283 285 280 280 279 273 267 268 270 272 275 271 266 267 267 270 271 275 279 280 275 277 279 275 273 268 261
329 333 332 331 331 330 328 321 315 309 300 290 285 279 280 279 283 280 280 279 278 276 275 271 270 271 271 272 271 269 270 272 272 273 277 277 272 269 275 280 278 276 267
330 329 329 330 330 328 329 328 321 317 320 318 306 294 286 279 275 276 280 278 277 279 278 276 273 274 274 270 265 265 263 267 270 274 277 275 280 278 278 278 277 273 277
329 328 329 330 329 329 334 337 338 340 337 334 326 312 302 289 280 272 270 273 273 274 278 279 275 272 271 267 265 270 267 265 267 271 268 268 272 275 277 276 272 277 277
325 325 325 330 336 334 340 345 343 347 343 339 338 330 322 313 298 283 272 263 266 268 269 273 275 275 271 268 267 272 272 269 270 271 269 273 274 275 275 278 272 276 280
313 324 335 342 349 349 354 352 349 347 345 340 343 342 332 330 320 302 292 271 258 264 266 270 272 275 274 266 260 263 274 281 281 276 281 280 277 271 269 270 271 273 273
310 323 336 343 347 354 355 354 358 358 355 350 345 343 341 336 330 318 308 289 259 259 263 262 267 272 270 263 259 259 274 282 286 285 285 290 293 289 279 263 263 263 263
328 334 337 343 353 351 351 353 357 5 11 9 8 6 348 328 329 330 324 302 276 262 267 273 273 265 266 255 255 274 283 289 293 296 298 299 297 300 305 286 267 259 260
336 347 5 1 355 346 340 344 350 356 356 4 4 9 6 5 357 334 315 308 298 280 279 273 262 254 257 269 274 277 283 289 294 294 295 302 304 308 304 298 281 270 263
343 351 6 359 346 342 344 345 343 339 342 354 356 359 359 2 4 356 337 309 296 294 293 288 281 261 266 277 280 285 287 288 291 292 294 300 303 299 297 300 295 286 279
334 335 336 337 333 336 339 338 339 336 338 340 341 347 343 342 346 347 352 350 325 292 287 286 282 282 283 286 286 284 282 281 281 285 289 288 294 297 296 297 294 295 292
346 350 346 335 331 333 329 325 330 331 336 334 340 343 339 341 346 347 340 337 344 336 321 328 307 291 293 299 303 303 296 287 285 287 287 297 295 302 311 306 301 300 300
359 353 1 4 359 350 358 356 335 331 328 328 331 335 334 332 334 340 336 340 336 345 341 343 341 334 335 326 331 327 324 319 315 307 298 297 301 305 306 310 314 308 300
20 12 9 6 359 6 359 354 346 334 329 323 324 327 338 345 347 337 332 334 333 323 319 339 338 340 338 335 333 333 329 327 325 325 317 311 307 303 305 304 305 303 298
359 12 16 12 6 358 356 355 347 343 342 342 341 349 350 351 348 343 332 332 329 349 359 356 348 342 338 331 326 323 322 320 319 316 314 311 309 310 307 306 306 303 300
308 339 356 4 6 5 7 16 8 2 358 355 355 353 352 359 5 11 13 19 22 17 14 12 7 3 357 353 351 348 345 339 332 326 321 317 314 310 305 303 305 298 295
285 295 313 331 349 355 1 11 10 9 6 2 2 2 6 14 13 16 22 26 28 28 24 22 20 18 13 7 4 2 0 354 348 340 333 327 322 316 315 313 308 303 299
276 277 288 294 288 309 327 342 355 1 359 3 4 7 10 15 13 12 11 8 6 4 1 359 356 357 355 354 353 350 348 347 345 344 340 331 327 320 318 313 312 307 303
284 276 281 287 279 280 292 308 317 322 331 343 351 3 8 10 6 6 11 10 4 359 357 355 352 346 342 343 345 341 339 336 333 330 330 329 324 320 318 315 313 309 304
293 288 282 285 287 283 280 282 289 297 301 313 329 337 350 0 359 358 356 355 355 352 349 347 343 340 338 337 337 337 336 337 334 332 328 326 323 319 317 314 313 312 306
273 282 287 284 282 278 272 272 275 285 296 300 301 311 320 328 336 340 349 351 351 346 341 340 339 340 341 340 337 337 332 335 332 331 331 322 319 320 317 314 313 311 304
272 271 276 281 284 274 272 274 279 274 279 296 297 293 296 300 306 306 315 330 337 340 340 339 333 333 337 338 339 338 337 337 333 327 328 323 313 316 316 316 312 310 306
271 270 267 269 276 281 272 269 277 282 275 281 294 296 296 295 291 293 298 303 315 321 327 328 333 335 332 330 333 333 330 330 331 330 324 323 316 318 321 318 311 307 302
Wind_Speed_850mb
11 17 22 28 32 32 34 35 37 38 40 40 41 44 47 46 44 49 54 52 56 54 53 54 51 49 53 51 48 46 47 51 47 49 55 54 43 40 40 42 45 43 36
13 17 22 28 31 34 37 40 42 45 45 46 43 41 43 44 45 46 47 51 53 58 57 49 51 48 49 50 50 49 51 50 51 53 46 56 51 46 43 43 45 48 48
15 19 22 25 27 29 32 35 37 41 42 44 48 50 49 46 45 45 44 46 48 51 55 55 54 50 54 45 49 52 51 47 49 51 50 40 48 51 45 41 41 41 44
20 22 22 23 25 27 29 31 33 35 38 40 42 44 45 47 45 43 43 42 43 46 50 50 50 47 45 41 43 47 48 49 46 45 47 48 39 38 45 48 47 43 46
22 23 24 24 25 26 28 30 30 30 34 38 40 40 42 43 36 41 42 42 44 46 44 44 47 49 48 45 45 47 43 45 45 42 45 47 43 37 36 31 34 34 40
20 21 24 26 28 29 30 28 25 24 26 28 31 39 42 44 46 44 43 45 45 46 47 45 43 42 44 42 45 45 45 47 47 46 48 48 48 47 41 39 37 32 37
21 24 24 25 28 31 29 24 23 24 26 26 26 29 32 37 42 47 46 44 46 44 46 43 44 43 40 41 42 42 42 44 48 48 51 51 44 41 43 46 40 37 40
21 22 23 24 27 28 25 23 23 27 27 27 26 27 29 28 30 36 43 49 45 42 41 40 40 38 37 35 34 33 31 31 34 40 49 52 54 51 54 50 48 52 50
22 20 18 21 26 25 26 25 25 28 28 29 31 30 26 26 26 29 36 40 45 39 38 37 38 38 33 34 33 30 26 20 21 26 30 35 43 51 53 53 58 54 58
21 16 15 20 24 26 28 26 30 35 35 35 33 30 25 27 27 29 32 31 35 36 34 36 36 35 32 31 32 28 27 28 31 33 32 32 34 37 38 52 53 55 56
21 17 14 18 21 21 24 27 28 31 32 35 34 30 24 24 27 30 27 22 27 30 30 29 28 28 24 25 20 24 29 34 34 35 37 36 33 32 28 29 41 51 55
14 14 15 17 19 19 21 23 21 23 27 31 32 33 33 32 26 24 24 23 24 27 28 23 20 19 15 17 21 24 27 29 34 35 30 26 24 24 24 27 30 37 47
15 14 14 13 14 19 25 24 26 25 27 28 29 33 36 35 32 26 21 23 24 25 24 22 23 20 21 23 27 28 31 32 35 37 36 29 27 28 35 33 32 33 40
17 16 14 12 13 17 22 25 24 26 29 32 37 39 44 38 35 36 35 24 19 25 29 26 26 24 26 28 27 27 28 30 32 33 31 37 41 42 43 41 45 39 39
14 15 18 15 15 15 18 20 24 28 31 36 37 40 40 36 35 38 39 38 31 21 15 10 11 15 19 22 23 23 24 26 26 24 24 24 27 35 30 30 33 38 40
11 12 16 14 16 17 17 15 21 25 31 35 40 36 34 33 33 30 31 28 24 20 19 8 8 12 14 18 22 24 25 25 23 23 27 33 38 37 37 41 40 38 41
12 16 17 18 16 20 20 17 14 21 27 30 32 33 31 29 24 27 27 24 22 15 11 9 11 12 15 19 24 26 30 32 37 36 36 38 41 44 44 44 46 46 49
10 15 20 22 19 18 20 18 14 14 14 13 25 24 23 24 25 24 22 19 13 11 12 14 15 17 21 24 27 31 33 35 35 37 37 40 44 46 50 49 48 51 52
8 9 14 20 21 19 17 15 13 14 16 17 17 20 20 19 22 21 21 19 19 20 20 20 20 22 25 28 31 33 34 35 39 41 42 44 46 46 48 50 49 52 56
11 10 11 13 16 15 14 12 13 16 17 19 18 20 21 21 22 23 24 25 25 25 25 25 27 28 29 32 35 37 38 38 40 43 46 49 49 50 53 56 57 59 58
15 16 16 17 14 13 13 12 13 14 14 18 18 22 22 22 22 23 23 24 25 25 25 26 28 30 32 35 38 41 43 46 48 51 52 54 57 58 57 60 62 63 61
17 20 20 20 20 21 16 16 15 14 14 16 17 21 20 18 18 19 20 21 23 24 26 28 29 31 33 36 39 41 46 48 50 52 57 65 65 62 63 66 67 66 63
19 20 21 23 24 25 26 22 20 17 17 19 21 21 21 21 19 18 19 20 23 24 26 28 28 26 29 35 37 40 42 47 52 56 64 68 69 68 68 70 70 70 65
29 25 23 24 26 26 23 24 25 26 25 26 25 23 22 21 19 20 22 23 26 26 28 30 32 34 38 37 36 34 33 45 52 57 66 72 72 72 70 71 74 72 65
40 37 34 29 26 25 25 26 26 26 27 26 27 25 23 23 23 21 20 24 26 29 32 36 32 36 39 41 38 41 45 50 56 57 66 68 64 68 71 73 72 68 62
48 46 45 39 36 30 28 27 26 25 26 25 26 27 26 25 25 25 26 26 28 31 36 33 40 43 43 40 40 45 49 54 58 61 62 65 63 69 72 72 66 64 61
Wind_Direction_850mb
268 267 273 278 281 285 284 285 286 285 286 285 281 279 284 286 282 275 275 268 266 268 267 267 266 263 263 266 268 266 265 266 263 277 282 284 280 280 273 262 258 270 275
303 292 289 289 286 284 283 280 277 275 275 280 283 283 281 283 286 283 278 271 269 270 270 270 270 267 266 271 273 270 266 265 269 272 273 281 283 282 276 272 268 269 258
328 321 313 305 297 290 285 281 281 279 279 277 277 279 283 285 282 283 285 280 272 268 272 272 271 270 267 266 270 274 273 272 269 272 276 274 281 284 277 268 267 263 262
328 325 324 320 318 318 314 306 295 288 284 280 279 279 279 280 283 285 280 280 279 273 267 268 270 272 275 271 266 267 267 270 271 275 279 280 275 277 279 275 273 268 261
329 333 332 331 331 330 328 321 315 309 300 290 285 279 280 279 283 280 280 279 278 276 275 271 270 271 271 272 271 269 270 272 272 273 277 277 272 269 275 280 278 276 267
330 329 329 330 330 328 329 328 321 317 320 318 306 294 286 279 275 276 280 278 277 279 278 276 273 274 274 270 265 265 263 267 270 274 277 275 280 278 278 278 277 273 277
329 328 329 330 329 329 334 337 338 340 337 334 326 312 302 289 280 272 270 273 273 274 278 279 275 272 271 267 265 270 267 265 267 271 268 268 272 275 277 276 272 277 277
325 325 325 330 336 334 340 345 343 347 343 339 338 330 322 313 298 283 272 263 266 268 269 273 275 275 271 268 267 272 272 269 270 271 269 273 274 275 275 278 272 276 280
313 324 335 342 349 349 354 352 349 347 345 340 343 342 332 330 320 302 292 271 258 264 266 270 272 275 274 266 260 263 274 281 281 276 281 280 277 271 269 270 271 273 273
310 323 336 343 347 354 355 354 358 358 355 350 345 343 341 336 330 318 308 289 259 259 263 262 267 272 270 263 259 259 274 282 286 285 285 290 293 289 279 263 263 263 263
328 334 337 343 353 351 351 353 357 5 11 9 8 6 348 328 329 330 324 302 276 262 267 273 273 265 266 255 255 274 283 289 293 296 298 299 297 300 305 286 267 259 260
336 347 5 1 355 346 340 344 350 356 356 4 4 9 6 5 357 334 315 308 298 280 279 273 262 254 257 269 274 277 283 289 294 294 295 302 304 308 304 298 281 270 263
343 351 6 359 346 342 344 345 343 339 342 354 356 359 359 2 4 356 337 309 296 294 293 288 281 261 266 277 280 285 287 288 291 292 294 300 303 299 297 300 295 286 279
334 335 336 337 333 336 339 338 339 336 338 340 341 347 343 342 346 347 352 350 325 292 287 286 282 282 283 286 286 284 282 281 281 285 289 288 294 297 296 297 294 295 292
346 350 346 335 331 333 329 325 330 331 336 334 340 343 339 341 346 347 340 337 344 336 321 328 307 291 293 299 303 303 296 287 285 287 287 297 295 302 311 306 301 300 300
359 353 1 4 359 350 358 356 335 331 328 328 331 335 334 332 334 340 336 340 336 345 341 343 341 334 335 326 331 327 324 319 315 307 298 297 301 305 306 310 314 308 300
20 12 9 6 359 6 359 354 346 334 329 323 324 327 338 345 347 337 332 334 333 323 319 339 338 340 338 335 333 333 329 327 325 325 317 311 307 303 305 304 305 303 298
359 12 16 12 6 358 356 355 347 343 342 342 341 349 350 351 348 343 332 332 329 349 359 356 348 342 338 331 326 323 322 320 319 316 314 311 309 310 307 306 306 303 300
308 339 356 4 6 5 7 16 8 2 358 355 355 353 352 359 5 11 13 19 22 17 14 12 7 3 357 353 351 348 345 339 332 326 321 317 314 310 305 303 305 298 295
285 295 313 331 349 355 1 11 10 9 6 2 2 2 6 14 13 16 22 26 28 28 24 22 20 18 13 7 4 2 0 354 348 340 333 327 322 316 315 313 308 303 299
276 277 288 294 288 309 327 342 355 1 359 3 4 7 10 15 13 12 11 8 6 4 1 359 356 357 355 354 353 350 348 347 345 344 340 331 327 320 318 313 312 307 303
284 276 281 287 279 280 292 308 317 322 331 343 351 3 8 10 6 6 11 10 4 359 357 355 352 346 342 343 345 341 339 336 333 330 330 329 324 320 318 315 313 309 304
293 288 282 285 287 283 280 282 289 297 301 313 329 337 350 0 359 358 356 355 355 352 349 347 343 340 338 337 337 337 336 337 334 332 328 326 323 319 317 314 313 312 306
273 282 287 284 282 278 272 272 275 285 296 300 301 311 320 328 336 340 349 351 351 346 341 340 339 340 341 340 337 337 332 335 332 331 331 322 319 320 317 314 313 311 304
272 271 276 281 284 274 272 274 279 274 279 296 297 293 296 300 306 306 315 330 337 340 340 339 333 333 337 338 339 338 337 337 333 327 328 323 313 316 316 316 312 310 306
271 270 267 269 276 281 272 269 277 282 275 281 294 296 296 295 291 293 298 303 315 321 327 328 333 335 332 330 333 333 330 330 331 330 324 323 316 318 321 318 311 307 302